Regional Weather Roundup
Issued by NWS

Home | Current Version | Previous Version | Graphics & Text | Print | Product List | Glossary On
Versions: 1 2 3 4 5 6 7 8 9 10 11 12 13 14 15 16 17 18 19 20 21 22 23 24 25 26 27 28 29 30 31 32 33 34 35 36 37 38 39 40 41 42 43 44 45 46 47 48 49 50
000
ASUS45 KTFX 021710
RWRMT
MONTANA REGIONAL WEATHER ROUNDUP
NATIONAL WEATHER SERVICE GREAT FALLS MT
1100 AM MDT WED SEP 02 2015

NOTE: "FAIR" INDICATES FEW OR NO CLOUDS BELOW 12000 FEET WITH NO
SIGNIFICANT WEATHER AND/OR OBSTRUCTIONS TO VISIBILITY.

MTZ001>007-043-021800-
WEST OF THE DIVIDE

CITY           SKY/WX    TMP DP  RH WIND       PRES   REMARKS
KALISPELL      PTSUNNY   69  38  32 SW13      29.78S
MISSOULA       MOSUNNY   65  40  39 CALM      29.83S
BUTTE          PTSUNNY   65  38  36 NE5       29.88S
MULLAN PASS    CLOUDY    45  40  82 SW10G20   29.93R
DEER LODGE       N/A     64  36  34 NE9       29.87F
EUREKA           N/A     64  39  39 S8        29.76R
HAMILTON         N/A     64  45  48 NE1       29.83S
LIBBY            N/A     64  41  42 S9G18     29.79R
PLAINS           N/A     68  42  38 W12       29.84R
RONAN            N/A     67  42  40 MISG      29.89R
$$

MTZ008-052>055-021800-
SOUTHWEST MONTANA

CITY           SKY/WX    TMP DP  RH WIND       PRES   REMARKS
BOZEMAN        PTSUNNY   82  36  19 VRB6      29.81F
DILLON         MOSUNNY   76  38  25 W6        29.85F
W YELLOWSTONE  MOSUNNY   68  36  30 S16G24    30.07R
$$

MTZ009-010-012-014-046-048-049-054-021800-
EAST SLOPES AND CENTRAL MONTANA

CITY           SKY/WX    TMP DP  RH WIND       PRES   REMARKS
CUT BANK       PTSUNNY   72  29  20 W15       29.72R
GREAT FALLS    CLOUDY    68  35  29 W3        29.71S
MALMSTROM AFB  CLOUDY    69  37  31 W7        29.71S
HELENA         CLOUDY    63  36  36 NW7       29.79R
CONRAD           N/A     74  35  24 CALM      29.76S
$$

MTZ011-013-016-021-045-047-050-051-021800-
NORTH CENTRAL MONTANA

CITY           SKY/WX    TMP DP  RH WIND       PRES   REMARKS
HAVRE          MOSUNNY   78  37  22 W15       29.66S
LEWISTOWN      SUNNY     84  36  18 E6        29.76F
N BAR RANCH      N/A     72  43  35 CALM      29.83R
CHINOOK          N/A     72  41  33 CALM      29.66S
FORT BENTON      N/A     75  36  23 CALM      29.69S
$$

MTZ017>020-022>027-061-062-021800-
NORTHEAST MONTANA

CITY           SKY/WX    TMP DP  RH WIND       PRES   REMARKS
GLASGOW        SUNNY     78  46  32 SE7       29.67S
JORDAN           N/A     92  34  13 S5        29.68F
SIDNEY         SUNNY     84  57  39 SE8       29.71F
WOLF POINT     SUNNY     82  49  31 CALM      29.68S
MALTA            N/A     70  47  43 CALM      29.66R
PLENTYWOOD       N/A     86  54  32 SE20G25   29.70F
POPLAR           N/A     88  48  25 S7        29.68F
$$

MTZ028>42-056>058-021800-
SOUTHCENTRAL AND SOUTHEAST MONTANA

CITY           SKY/WX    TMP DP  RH WIND       PRES   REMARKS
BAKER          MOSUNNY   90  48  23 S12       29.79F
BILLINGS       PTSUNNY   84  43  23 SW7       29.78R
LIVINGSTON     MOSUNNY   84  32  15 SW32G40   29.80S
MILES CITY     MOSUNNY   83  46  27 SE8       29.73S
FORSYTH          N/A     84  41  21 N3        29.73R
LAUREL           N/A     89  41  18 S15       29.79R
$$

REGIONAL REPORTS...DAKOTAS

CITY           SKY/WX    TMP DP  RH WIND       PRES   REMARKS
WILLISTON      SUNNY     86  61  42 S12       29.74S
MINOT          SUNNY     84  65  52 E13       29.76S
DICKINSON      SUNNY     87  52  29 S14       29.78F
CROSBY           N/A     86  59  39 S12       29.73F
BISMARCK       SUNNY     76  68  76 E8        29.79S
GRAND FORKS    SUNNY     81  67  62 S12       29.81F
FARGO          SUNNY     83  67  58 S12       29.82S
BUFFALO SD       N/A     87  50  27 S13       29.76F
RAPID CITY     MOSUNNY   86  52  30 CALM      29.85S
$$

REGIONAL REPORTS...WYOMING/IDAHO/WASHINGTON

CITY           SKY/WX    TMP DP  RH WIND       PRES   REMARKS
GILLETTE         N/A     87  43  21 SW12      29.91S
SHERIDAN       MOSUNNY   92  40  16 SW15      29.84F
BUFFALO WY     MOSUNNY   89  34  14 SW14      29.95S
CODY           SUNNY     82  36  18 SW7       29.93S
YELLOWSTONE LA   N/A     67  35  30 VRB3      30.16S
IDAHO FALLS    MOSUNNY   78  39  24 SW13      29.97S
SALMON         MOSUNNY   64  36  34 N3        29.82F
BOISE          CLOUDY    77  39  25 NE7       29.88S
SPOKANE        PTSUNNY   62  45  53 SW21G32   29.82R
$$

REGIONAL REPORTS...ALBERTA

CITY           SKY/WX    TMP DP  RH WIND       PRES   REMARKS
EDMONTON       MOSUNNY   57  43  58 NE3       29.56R
CALGARY        MOSUNNY   66  39  37 S18       29.58S
LETHBRIDGE     PTSUNNY   75  32  20 SW18G29   29.64F
MEDICINE HAT   CLOUDY    72  41  33 SW6       29.63S
WATERTON GATE    N/A     66  32  28 SW26G37     N/A
CARDSTON         N/A     72  30  21 SW10G18     N/A
MILK RIVER       N/A     73  34  23 SW20        N/A
ONEFOUR          N/A     72  30  21 W5          N/A
$$

REGIONAL REPORTS...SASKATCHEWAN

CITY           SKY/WX    TMP DP  RH WIND       PRES   REMARKS
SWIFT CURRENT  SUNNY     72  43  35 SE21      29.62F
REGINA         PTSUNNY   81  48  32 SE21      29.69F
SASKATOON      CLOUDY    66  48  52 SE10      29.67S
CYPRESS HILLS    N/A     70  37  30 S6          N/A
VAL MARIE        N/A     68  43  40 S10         N/A
ROCKGLEN         N/A     77  48  36 S17G23      N/A
ASSINIBOIA       N/A     64  43  45 E5          N/A
$$



USA.gov is the U.S. government's official web portal to all federal, state and local government web resources and services.